Content
SEND FEEDBACK

Daily
Averages
Monthly
Summary
United Kingdom

LONDON, ENGLAND


Home > Europe > United Kingdom > England
Elevation: 203 feet     Latitude: 51 09N     Longitude: 000 11W

WEATHER
 
SELECT A DAY
Number of Records: 292,972;   Date Range: 7/1/96 - 7/29/14
 
SHARE

PRINT THIS DATA

[ ← Previous Day ]
WEATHER ALMANAC - MARCH 20, 2013
[ Next Day → ]
[ °C ]   °F
Weather ElementAverageHighLow
Temperature38.8 °F44.6 °F (10:50 am)33.8 °F (12:50 am)
Dewpoint34.9 °F37.4 °F (8:50 am)32 °F (12:50 am)
Humidity86.7 %100 % (5:20 am)66 % (12:20 pm)
Barometer29.73 in30.01 in (10:20 pm)29.50 in (12:50 am)
Wind Speed7.1 mph10.4 mph (12:50 pm)
Wind Gust19.6 mph (12:20 pm)
Weather ElementAverage
Visibility3.6 mi
Wind DirectionESE (121.1 °)

Weather ElementTotal
Precipitation---
Heating Degree Days25.8 (Base 65)
Averaged from 47 records on March 20, 2013
WEATHER CONDITIONS BREAKOUT
WIND DIRECTION BREAKOUT
WEATHER BY HOUR - MARCH 20, 2013
[ °C ]   °F
Local TimeTemperatureDewpointHumidityBarometerVisibilityWind DirectionWind SpeedGust SpeedPrecipitationEventsConditions
12:50 AM33.8 °F32.0 °F93 %29.50 in3.1 miNE (40°)5.8 mphHaze
1:20 AM33.8 °F32.0 °F93 %29.50 in2.5 miNNE (30°)8.1 mphHaze
1:50 AM35.6 °F33.8 °F93 %29.50 in2.5 miNE (40°)8.1 mphMostly Cloudy
2:20 AM35.6 °F33.8 °F93 %29.50 in2.8 miNNE (30°)6.9 mphHaze
2:50 AM35.6 °F33.8 °F93 %29.50 in3.7 miNE (40°)6.9 mphMostly Cloudy
3:20 AM35.6 °F33.8 °F93 %29.50 in3.7 miNNE (20°)9.2 mphMostly Cloudy
3:50 AM35.6 °F33.8 °F93 %29.50 in3.1 miNNE (30°)8.1 mphHaze
4:20 AM35.6 °F33.8 °F93 %29.53 in3.1 miNorth (350°)9.2 mphHaze
4:50 AM35.6 °F33.8 °F93 %29.53 in3.1 miNorth (360°)5.8 mphHaze
5:20 AM33.8 °F33.8 °F100 %29.53 in3.1 miNNW (330°)4.6 mphHaze
5:50 AM33.8 °F33.8 °F100 %29.53 inWNW (290°)3.5 mphHaze
6:20 AM33.8 °F32.0 °F93 %29.56 in3.1 miNNW (330°)4.6 mphHaze
6:50 AM35.6 °F33.8 °F93 %29.56 in2.5 miNW (310°)6.9 mphHaze
7:20 AM35.6 °F35.6 °F100 %29.59 in1.9 miNW (320°)5.8 mphHaze
7:50 AM37.4 °F35.6 °F93 %29.59 in1.9 miNNW (330°)6.9 mphHaze
8:20 AM37.4 °F35.6 °F93 %29.59 in2.2 miNorth (360°)5.8 mphHaze
8:50 AM39.2 °F37.4 °F93 %29.62 in3.1 miNorth (10°)8.1 mphHaze
9:20 AM41.0 °F35.6 °F81 %29.62 in6.2 miNE (40°)9.2 mphScattered Clouds
9:50 AM41.0 °F35.6 °F81 %29.65 in6.2 miNE (40°)9.2 mphMostly Cloudy
10:20 AM42.8 °F35.6 °F76 %29.68 in6.2 miNNE (30°)9.2 mphScattered Clouds
10:50 AM44.6 °F35.6 °F71 %29.68 in6.2 miNNE (20°)9.2 mphScattered Clouds
11:20 AM44.6 °F35.6 °F71 %29.68 in6.2 miVariable8.1 mphMostly Cloudy
11:50 AM42.8 °F33.8 °F70 %29.71 in6.2 miNNE (20°)6.9 mphMostly Cloudy
12:20 PM44.6 °F33.8 °F66 %29.74 in6.2 miNorth (360°)6.9 mph19.6 mphMostly Cloudy
12:50 PM42.8 °F35.6 °F76 %29.74 in3.7 miNNW (330°)10.4 mphRainLight Rain Showers
1:20 PM42.8 °F35.6 °F76 %29.74 in3.7 miNW (320°)8.1 mphMostly Cloudy
1:50 PM44.6 °F35.6 °F71 %29.77 in4.3 miVariable8.1 mphScattered Clouds
2:20 PM44.6 °F35.6 °F71 %29.77 in3.7 miNE (50°)9.2 mphMostly Cloudy
2:50 PM42.8 °F35.6 °F76 %29.80 in3.7 miNE (50°)8.1 mphScattered Clouds
3:20 PM42.8 °F35.6 °F76 %29.80 in3.7 miNE (40°)6.9 mphRainLight Rain
3:50 PM41.0 °F35.6 °F81 %29.83 in3.7 miENE (60°)6.9 mphRainLight Rain
4:20 PM41.0 °F37.4 °F87 %29.83 in3.1 miNNE (30°)5.8 mphRainLight Rain
4:50 PM41.0 °F37.4 °F87 %29.86 inNNE (20°)4.6 mphHaze
5:20 PM41.0 °F37.4 °F87 %29.86 in2.5 miNE (40°)5.8 mphHaze
5:50 PM39.2 °F37.4 °F93 %29.89 in2.5 miENE (70°)8.1 mphLight Drizzle
6:20 PM39.2 °F37.4 °F93 %29.89 in2.2 miEast (80°)6.9 mphLight Drizzle
6:50 PM39.2 °F37.4 °F93 %29.92 in1.9 miENE (70°)8.1 mphLight Drizzle
7:20 PM39.2 °F35.6 °F87 %29.95 in1.9 miENE (70°)6.9 mphHaze
7:50 PM37.4 °F35.6 °F93 %29.95 in2.2 miEast (80°)6.9 mphHaze
8:20 PM37.4 °F35.6 °F93 %29.95 in3.7 miEast (80°)6.9 mphMostly Cloudy
8:50 PM37.4 °F35.6 °F93 %29.95 in3.7 miEast (80°)8.1 mphMostly Cloudy
9:20 PM37.4 °F33.8 °F87 %29.98 in4.3 miENE (70°)8.1 mphMostly Cloudy
9:50 PM37.4 °F33.8 °F87 %29.98 in4.3 miEast (80°)6.9 mphMostly Cloudy
10:20 PM37.4 °F33.8 °F87 %30.01 in4.3 miEast (80°)5.8 mphMostly Cloudy
10:50 PM37.4 °F33.8 °F87 %30.01 in3.7 miEast (80°)4.6 mphMostly Cloudy
11:20 PM37.4 °F33.8 °F87 %30.01 in3.7 miEast (90°)6.9 mphMostly Cloudy
11:50 PM37.4 °F33.8 °F87 %29.98 in3.7 miEast (90°)4.6 mphMostly Cloudy
Hourly data recorded from EGKK, located miles away from London, England







STORIES FROM OUR PARTNERS